Flag for U.S.A. Weather past 2 weeks in Ontario, California, U.S.A.

Now
85 °F

Broken clouds.


Feels Like: 84 °F
Forecast: 67 / 89 °F
Wind: 12 mph from West

Location: Ontario International Airport

Current Time: Jul 1, 2015 at 6:57:19 PM

Latest Report: Jul 1, 2015 at 5:53 PM


Visibility: 10 mi

Pressure: 29.82 "Hg

Humidity: 39%

Dew point: 57 °F

Location of OntarioLocation

Historic Weather in Ontario — Graph

°F

Ontario temperature yesterday

Maximum temperature yesterday: 99 °F (at 1:53 PM)
Minimum temperature yesterday: 70 °F (at 5:53 AM)
Average temperature yesterday: 82 °F

Past Weeks' High & Low Weather Summary

 TemperatureHumidityPressure
High102 °F (Jun 28, 3:53 PM)93% (Jun 17, 4:53 AM)29.97 "Hg (Jun 17, 4:53 AM)
Low60 °F (Jun 17, 4:53 AM)12% (Jun 22, 3:53 PM)29.74 "Hg (Jun 20, 2:53 AM)
Average80 °F46%29.85 "Hg
* Reported Jun 16 5:53 PM — Jul 1 5:53 PM, Ontario, Weather by CustomWeather, © 2015

Note: Actual official high and low records may vary slightly from our data, if they occured in-between our weather recording intervals... More about our weather records

Advertising

Ontario weather history for previous 24 hours

 ConditionsComfort  
Time TempWeatherWind HumidityBarometerVisibility
5:53 PM
Wed, Jul 1
85 °FBroken clouds.12 mph39%29.82 "Hg10 mi
4:53 PM86 °FPartly sunny.12 mph40%29.83 "Hg10 mi
3:53 PM89 °FPartly sunny.13 mph34%29.82 "Hg10 mi
2:53 PM89 °FCloudy.13 mph38%29.84 "Hg10 mi
1:53 PM92 °FCloudy.8 mph26%29.84 "Hg10 mi
12:53 PM91 °FMostly cloudy.8 mph28%29.83 "Hg10 mi
11:53 AM87 °FMostly cloudy.5 mph30%29.87 "Hg10 mi
10:53 AM86 °FPartly sunny.5 mph30%29.87 "Hg10 mi
9:53 AM83 °FPartly sunny.3 mph37%29.90 "Hg10 mi
8:53 AM77 °FCloudy.5 mph52%29.89 "Hg10 mi
7:53 AM79 °FCloudy.3 mph44%29.87 "Hg10 mi
6:53 AM79 °FMostly cloudy.No wind38%29.85 "Hg10 mi
5:53 AM73 °FPartly cloudy.7 mph57%29.85 "Hg10 mi
4:53 AM73 °FPassing clouds.8 mph62%29.83 "Hg10 mi
3:53 AM76 °FThunderstorms. Partly cloudy.8 mph50%29.87 "Hg10 mi
2:53 AM75 °FPassing clouds.3 mph54%29.85 "Hg10 mi
1:53 AM74 °FPassing clouds.7 mph53%29.80 "Hg10 mi
12:53 AM76 °FPassing clouds.6 mph42%29.80 "Hg10 mi
11:53 PM
Tue, Jun 30
78 °FPassing clouds.5 mph39%29.80 "Hg10 mi
10:53 PM79 °FPassing clouds.7 mph36%29.80 "Hg10 mi
8:53 PM83 °FScattered clouds.No wind30%29.79 "Hg10 mi
7:53 PM84 °FBroken clouds.No wind31%29.79 "Hg10 mi
6:53 PM85 °FBroken clouds.No wind31%29.80 "Hg10 mi
Weather by CustomWeather, © 2015

See weather overviewHow to use our weather pages